Погода в Каменномостском

Россия / Республика Адыгея     44°17′45″N   40°11′00″E
темп.,
°C
ветер,
м/с
пор.,
м/с
влажн.,
%
обл.,
%
осадки,
мм/ч
давл.,
гПа
погр.,
м
27 сентября, пн
пн2700:00+9ююз367873 0.0 1018120
03:00+9ююз247891 0.0 101799
06:00+9юз238096 0.0 101778
09:00+10сз1389100 0.3 1017167
12:00+11зсз1388100 0.3 1017219
15:00+14сз248058 0.7 1016638
18:00+10ссз1295100 0.7 101772
21:00+10сз009196 0.7 101711
28 сентября, вт
вт2800:00+8ююз009451 0.0 101711
03:00+6ююз119616 0.0 101810
06:00+6ююв119623 0.0 101810
09:00+10св128670 0.0 1018430
12:00+11ссв2277100 0.1 1018644
15:00+11всв2373100 0.1 1019725
18:00+9в1281100 0.0 102090
21:00+9вюв228340 0.0 102087
29 сентября, ср
ср2900:00+6ююв229419 0.0 102124
03:00+6ююв2194100 0.0 102126
06:00+7юв1193100 0.0 102128
09:00+11всв247783 0.0 1021674
12:00+12всв247499 0.1 1021917
15:00+11всв3580100 0.4 1021649
18:00+9в2484100 0.1 1022271
21:00+8всв2589100 0.1 1024481
30 сентября, чт
чт3000:00+7всв2492100 0.0 1024395
03:00+6всв2492100 0.1 1025257
06:00+6в249287 0.0 1026272
09:00+8в257751 0.0 1025511
12:00+11в456241 0.0 10241065
15:00+11в456264 0.0 10241048
18:00+6в35867 0.0 1026203
21:00+3вюв23960 0.0 102785
1 октября, пт
пт100:00+2вюв22972 0.0 102741
03:00+2вюв22975 0.0 102739
06:00+1вюв22975 0.0 102738
09:00+8всв23720 0.0 1026361
12:00+13всв33550 0.0 1024910
15:00+13всв56490 0.0 10241107
18:00+7в35760 0.0 1026188
21:00+3вюв23920 0.0 102785